Back to catalog

CZ-6A DEB

AliveSSO
NORAD 54953·DEBRIS·🇨🇳 China

Launched Nov 11, 2022 from Taiyuan Satellite Launch Center

Loading…

Next Passes (next 24 hours)

TLE

FreshSource: Space-Track

Epoch: Sep 14, 2026, 14:24 UTC

1 54953U 22151SS  26257.60007972  .00002466  00000-0  55230-3 0  9996
2 54953  98.5398 305.2047 0078494   3.4554 356.7168 14.55718334202656

Track CZ-6A DEB in real time with AllMySat

Download on the App Store